Wautoma, WI

3:23 PM CDT on May 22, 2017 (GMT -0500)
Wautoma

Weather History for KY50 - February, 2013

Change the Weather History Date:

Monday, February 25, 2013

  Actual Average (KPCZ) Record (KPCZ)
Temperature  
Mean Temperature 22 °F -  
Max Temperature 34 °F 32 °F 52 °F (1976)
Min Temperature 10 °F 12 °F -17 °F (1950)
Degree Days  
Heating Degree Days 43    
Moisture  
Dew Point 14 °F    
Average Humidity 84    
Maximum Humidity 93    
Minimum Humidity 59    
Precipitation  
Precipitation 0.00 in - - ()
Sea Level Pressure  
Sea Level Pressure 30.13 in    
Wind  
Wind Speed 0 mph (North)    
Max Wind Speed 0 mph    
Max Gust Speed -    
Visibility 5 miles    
Events Fog    
Averages and records for this station are not official NWS values.
T = Trace of Precipitation, MM = Missing Value Source: NWS Daily Summary

Daily Weather History Graph

Daily Weather History Graph

Search for Another Location

Airport or City:

Trip Planner

Search our weather history database for the weather conditions in past years. The results will help you decide how hot, cold, wet, or windy it might be!

Date:

Astronomy

Feb. 25, 2013 Rise Set
Actual Time 6:40 AM CST 5:40 PM CST
Civil Twilight 6:11 AM CST 6:09 PM CST
Nautical Twilight 5:37 AM CST 6:43 PM CST
Astronomical Twilight 5:04 AM CST 7:16 PM CST
Moon 5:56 PM CST (2/25) 6:09 AM CST (2/25)
Length of Visible Light 11h 58m
Length of Day
11h 00m
Full, 100% of the Moon is Illuminated
Feb 25
Full
Feb 25
Full
Mar 4
Last Quarter
Mar 11
New
Mar 19
First Quarter

Hourly Weather History & Observations

Time (CST) Temp. Dew Point Humidity Pressure Visibility Wind Dir Wind Speed Gust Speed Precip Events Conditions
12:02 AM 12.2 °F 8.6 °F 85% 30.12 in 1.2 mi Calm Calm - N/A   Clear
12:05 AM 12.2 °F 8.6 °F 85% 30.12 in 0.8 mi Calm Calm - N/A   Clear
12:08 AM 12.2 °F 10.4 °F 92% 30.12 in 0.2 mi Calm Calm - N/A Fog Light Freezing Fog
12:16 AM 12.2 °F 8.6 °F 85% 30.12 in 0.8 mi Calm Calm - N/A   Clear
12:18 AM 12.2 °F 8.6 °F 85% 30.12 in 3.0 mi Calm Calm - N/A   Clear
12:38 AM 12.2 °F 8.6 °F 85% 30.13 in 1.8 mi Calm Calm - N/A   Clear
12:46 AM 12.2 °F 8.6 °F 85% 30.13 in 1.2 mi Calm Calm - N/A   Clear
12:56 AM 12.0 °F 9.1 °F 88% 30.17 in 3.0 mi Calm Calm - N/A   Clear
1:02 AM 10.4 °F 8.6 °F 92% 30.13 in 1.2 mi Calm Calm - N/A   Mostly Cloudy
1:04 AM 10.4 °F 8.6 °F 92% 30.13 in 0.5 mi Calm Calm - N/A Fog Light Freezing Fog
1:12 AM 10.4 °F 8.6 °F 92% 30.13 in 0.2 mi Calm Calm - N/A Fog Light Freezing Fog
1:30 AM 10.4 °F 6.8 °F 85% 30.14 in 0.2 mi Calm Calm - N/A Fog Light Freezing Fog
1:39 AM 10.4 °F 8.6 °F 92% 30.13 in 0.2 mi Calm Calm - N/A Fog Light Freezing Fog
1:48 AM 10.4 °F 8.6 °F 92% 30.13 in 0.2 mi Calm Calm - N/A Fog Light Freezing Fog
1:56 AM 11.1 °F 9.1 °F 92% 30.17 in 0.8 mi Calm Calm - N/A   Overcast
1:58 AM 10.4 °F 8.6 °F 92% 30.13 in 2.0 mi Calm Calm - N/A   Overcast
2:05 AM 12.2 °F 8.6 °F 85% 30.13 in 6.0 mi Calm Calm - N/A   Overcast
2:56 AM 12.2 °F 10.4 °F 92% 30.12 in 3.0 mi Calm Calm - N/A   Mostly Cloudy
3:56 AM 14.0 °F 12.0 °F 92% 30.15 in 5.0 mi Calm Calm - N/A   Overcast
4:56 AM 16.2 °F 14.0 °F 91% 30.16 in 6.0 mi Calm Calm - N/A   Overcast
5:56 AM 17.1 °F 15.1 °F 92% 30.16 in 7.0 mi Calm Calm - N/A   Overcast
6:56 AM 18.1 °F 16.2 °F 92% 30.17 in 5.0 mi Calm Calm - N/A   Mostly Cloudy
7:56 AM 19.0 °F 17.1 °F 92% 30.17 in 5.0 mi Calm Calm - N/A   Mostly Cloudy
8:56 AM 21.2 °F 19.4 °F 93% 30.15 in 7.0 mi Calm Calm - N/A   Mostly Cloudy
9:56 AM 24.1 °F 22.1 °F 92% 30.18 in 9.0 mi Calm Calm - N/A   Overcast
10:56 AM 27.1 °F 19.0 °F 72% 30.17 in 10.0 mi Calm Calm - N/A   Overcast
11:56 AM 30.2 °F 19.4 °F 64% 30.12 in 10.0 mi Calm Calm - N/A   Overcast
12:56 PM 32.9 °F 20.1 °F 59% 30.14 in 6.0 mi Calm Calm - N/A   Haze
1:56 PM 32.9 °F 21.0 °F 62% 30.13 in 10.0 mi Calm Calm - N/A   Overcast
2:56 PM 34.9 °F 22.1 °F 60% 30.12 in 9.0 mi Calm Calm - N/A   Mostly Cloudy
3:56 PM 34.0 °F 21.0 °F 59% 30.12 in 10.0 mi Calm Calm - N/A   Overcast
4:56 PM 34.0 °F 23.0 °F 64% 30.11 in 9.0 mi Calm Calm - N/A   Overcast
5:56 PM 32.0 °F 21.2 °F 64% 30.07 in 10.0 mi Calm Calm - N/A   Overcast
6:56 PM 28.0 °F 22.1 °F 78% 30.11 in 10.0 mi Calm Calm - N/A   Clear
7:56 PM 21.0 °F 18.1 °F 89% 30.11 in 7.0 mi Calm Calm - N/A   Clear
8:56 PM 21.0 °F 19.0 °F 92% 30.09 in 5.0 mi Calm Calm - N/A   Clear
9:56 PM 22.1 °F 19.0 °F 88% 30.09 in 6.0 mi Calm Calm - N/A   Clear
10:56 PM 20.1 °F 18.1 °F 92% 30.11 in 5.0 mi Calm Calm - N/A   Clear
11:56 PM 17.1 °F 15.1 °F 92% 30.10 in 4.0 mi Calm Calm - N/A   Clear